Time,TemperatureF,DewpointF,PressureIn,WindDirection,WindDirectionDegrees,WindSpeedMPH,WindSpeedGustMPH,Humidity,HourlyPrecipIn,Conditions,Clouds,dailyrainin,SoftwareType,DateUTC
2012-12-09 00:02:00,42.0,39.0,30.08,North,0,0.0,0.0,88,0.00,,,0.00,,2012-12-09 08:02:00,
2012-12-09 00:12:00,42.0,39.0,30.08,North,0,0.0,0.0,88,0.00,,,0.00,,2012-12-09 08:12:00,
2012-12-09 00:22:00,41.0,38.0,30.08,North,0,0.0,0.0,88,0.00,,,0.00,,2012-12-09 08:22:00,
2012-12-09 00:32:00,41.0,38.0,30.08,North,0,0.0,0.0,88,0.00,,,0.00,,2012-12-09 08:32:00,
2012-12-09 00:42:00,41.0,38.0,30.08,North,0,0.0,0.0,88,0.00,,,0.00,,2012-12-09 08:42:00,
2012-12-09 00:53:00,41.0,38.0,30.08,North,0,0.0,0.0,88,0.00,,,0.00,,2012-12-09 08:53:00,
2012-12-09 01:02:00,41.0,38.0,30.08,North,0,0.0,0.0,88,0.00,,,0.00,,2012-12-09 09:02:00,
2012-12-09 01:12:00,41.0,38.0,30.09,North,0,0.0,0.0,88,0.00,,,0.00,,2012-12-09 09:12:00,
2012-12-09 01:22:00,41.0,38.0,30.09,North,0,0.0,0.0,88,0.00,,,0.00,,2012-12-09 09:22:00,
2012-12-09 01:32:00,41.0,38.0,30.09,North,0,0.0,0.0,89,0.00,,,0.00,,2012-12-09 09:32:00,
2012-12-09 01:42:00,41.0,38.0,30.09,North,0,0.0,0.0,89,0.00,,,0.00,,2012-12-09 09:42:00,
2012-12-09 01:52:00,40.0,37.0,30.08,North,0,0.0,0.0,89,0.00,,,0.00,,2012-12-09 09:52:00,
2012-12-09 02:02:00,41.0,38.0,30.09,North,0,0.0,0.0,89,0.00,,,0.00,,2012-12-09 10:02:00,
2012-12-09 02:11:00,40.0,37.0,30.10,North,0,0.0,0.0,89,0.00,,,0.00,,2012-12-09 10:11:00,
2012-12-09 02:22:00,40.0,37.0,30.10,North,0,0.0,0.0,89,0.00,,,0.00,,2012-12-09 10:22:00,
2012-12-09 02:32:00,40.0,37.0,30.10,North,0,0.0,0.0,89,0.00,,,0.00,,2012-12-09 10:32:00,
2012-12-09 02:42:00,40.0,37.0,30.10,North,0,0.0,0.0,89,0.00,,,0.00,,2012-12-09 10:42:00,
2012-12-09 02:52:00,40.0,37.0,30.10,North,0,0.0,0.0,89,0.00,,,0.00,,2012-12-09 10:52:00,
2012-12-09 03:02:00,40.0,37.0,30.10,North,0,0.0,0.0,89,0.00,,,0.00,,2012-12-09 11:02:00,
2012-12-09 03:11:00,40.0,37.0,30.10,North,0,0.0,0.0,89,0.00,,,0.00,,2012-12-09 11:11:00,
2012-12-09 03:22:00,40.0,37.0,30.10,North,0,0.0,0.0,89,0.00,,,0.00,,2012-12-09 11:22:00,
2012-12-09 03:32:00,40.0,37.0,30.10,ENE,67,0.0,0.0,89,0.00,,,0.00,,2012-12-09 11:32:00,
2012-12-09 03:42:00,40.0,37.0,30.10,ENE,67,0.0,0.0,89,0.00,,,0.00,,2012-12-09 11:42:00,
2012-12-09 03:52:00,40.0,37.0,30.10,ENE,67,0.0,0.0,89,0.00,,,0.00,,2012-12-09 11:52:00,
2012-12-09 04:02:00,40.0,37.0,30.11,ENE,67,0.0,0.0,90,0.00,,,0.00,,2012-12-09 12:02:00,
2012-12-09 04:12:00,40.0,37.0,30.11,ENE,67,0.0,0.0,90,0.00,,,0.00,,2012-12-09 12:12:00,
2012-12-09 04:22:00,40.0,37.0,30.11,ENE,67,0.0,0.0,90,0.00,,,0.00,,2012-12-09 12:22:00,
2012-12-09 04:32:00,40.0,37.0,30.11,ENE,67,0.0,0.0,89,0.00,,,0.00,,2012-12-09 12:32:00,
2012-12-09 04:42:00,40.0,37.0,30.11,ENE,67,0.0,0.0,89,0.00,,,0.00,,2012-12-09 12:42:00,
2012-12-09 04:52:00,40.0,37.0,30.12,ENE,67,0.0,0.0,89,0.00,,,0.00,,2012-12-09 12:52:00,
2012-12-09 05:02:00,40.0,37.0,30.10,ENE,67,0.0,0.0,89,0.00,,,0.00,,2012-12-09 13:02:00,
2012-12-09 05:12:00,40.0,37.0,30.11,ENE,67,0.0,0.0,89,0.00,,,0.00,,2012-12-09 13:12:00,
2012-12-09 05:22:00,40.0,37.0,30.11,ENE,67,0.0,0.0,89,0.00,,,0.00,,2012-12-09 13:22:00,
2012-12-09 05:32:00,39.0,36.0,30.10,ENE,67,0.0,0.0,89,0.00,,,0.00,,2012-12-09 13:32:00,
2012-12-09 05:42:00,39.0,36.0,30.11,ENE,67,0.0,0.0,89,0.00,,,0.00,,2012-12-09 13:42:00,
2012-12-09 05:52:00,39.0,36.0,30.11,ENE,67,0.0,0.0,89,0.00,,,0.00,,2012-12-09 13:52:00,
2012-12-09 06:02:00,40.0,37.0,30.11,ENE,67,0.0,0.0,89,0.00,,,0.00,,2012-12-09 14:02:00,
2012-12-09 06:12:00,40.0,37.0,30.11,ENE,67,0.0,0.0,89,0.00,,,0.00,,2012-12-09 14:12:00,
2012-12-09 06:22:00,39.0,36.0,30.12,ENE,67,0.0,0.0,89,0.00,,,0.00,,2012-12-09 14:22:00,
2012-12-09 06:32:00,39.0,36.0,30.13,ENE,67,0.0,0.0,89,0.00,,,0.00,,2012-12-09 14:32:00,
2012-12-09 06:42:00,39.0,36.0,30.13,ENE,67,0.0,0.0,89,0.00,,,0.00,,2012-12-09 14:42:00,
2012-12-09 06:52:00,39.0,36.0,30.12,ENE,67,0.0,0.0,89,0.00,,,0.00,,2012-12-09 14:52:00,
2012-12-09 07:02:00,39.0,36.0,30.13,ENE,67,0.0,0.0,89,0.00,,,0.00,,2012-12-09 15:02:00,
2012-12-09 07:12:00,39.0,36.0,30.13,ENE,67,0.0,0.0,89,0.00,,,0.00,,2012-12-09 15:12:00,
2012-12-09 07:22:00,39.0,36.0,30.13,ENE,67,0.0,0.0,89,0.00,,,0.00,,2012-12-09 15:22:00,
2012-12-09 07:32:00,39.0,36.0,30.13,ENE,67,0.0,0.0,89,0.00,,,0.00,,2012-12-09 15:32:00,
2012-12-09 07:42:00,39.0,36.0,30.13,ENE,67,0.0,0.0,89,0.00,,,0.00,,2012-12-09 15:42:00,
2012-12-09 07:52:00,39.0,36.0,30.13,ENE,67,0.0,0.0,89,0.00,,,0.00,,2012-12-09 15:52:00,
2012-12-09 08:02:00,39.0,36.0,30.13,ENE,67,0.0,0.0,90,0.00,,,0.00,,2012-12-09 16:02:00,
2012-12-09 08:12:00,40.0,37.0,30.13,ENE,67,0.0,0.0,90,0.00,,,0.00,,2012-12-09 16:12:00,
2012-12-09 08:22:00,40.0,37.0,30.13,ENE,67,0.0,0.0,90,0.00,,,0.00,,2012-12-09 16:22:00,
2012-12-09 08:32:00,40.0,37.0,30.13,ENE,67,0.0,0.0,90,0.00,,,0.00,,2012-12-09 16:32:00,
2012-12-09 08:42:00,40.0,37.0,30.13,ENE,67,0.0,0.0,90,0.00,,,0.00,,2012-12-09 16:42:00,
2012-12-09 08:52:00,41.0,38.0,30.13,ENE,67,0.0,0.0,90,0.00,,,0.00,,2012-12-09 16:52:00,
2012-12-09 09:02:00,42.0,39.0,30.15,ENE,67,0.0,0.0,90,0.00,,,0.00,,2012-12-09 17:02:00,
2012-12-09 09:12:00,42.0,39.0,30.15,ENE,67,0.0,0.0,90,0.00,,,0.00,,2012-12-09 17:12:00,
2012-12-09 09:22:00,42.0,40.0,30.15,ENE,67,0.0,0.0,91,0.00,,,0.00,,2012-12-09 17:22:00,
2012-12-09 09:32:00,43.0,41.0,30.15,ENE,67,0.0,0.0,91,0.00,,,0.00,,2012-12-09 17:32:00,
2012-12-09 09:42:00,43.0,41.0,30.15,ENE,67,0.0,0.0,91,0.00,,,0.00,,2012-12-09 17:42:00,
2012-12-09 09:52:00,44.0,42.0,30.16,ENE,67,0.0,0.0,91,0.00,,,0.00,,2012-12-09 17:52:00,
2012-12-09 10:02:00,45.0,43.0,30.15,SSE,157,0.0,0.0,91,0.00,,,0.00,,2012-12-09 18:02:00,
2012-12-09 10:12:00,46.0,43.0,30.17,West,270,0.0,0.0,90,0.00,,,0.00,,2012-12-09 18:12:00,
2012-12-09 10:22:00,46.0,43.0,30.17,West,270,0.0,0.0,90,0.00,,,0.00,,2012-12-09 18:22:00,
2012-12-09 10:33:00,47.0,44.0,30.17,West,270,0.0,0.0,90,0.00,,,0.00,,2012-12-09 18:33:00,
2012-12-09 10:42:00,47.0,44.0,30.17,West,270,0.0,0.0,90,0.00,,,0.00,,2012-12-09 18:42:00,
2012-12-09 10:52:00,48.0,45.0,30.16,WNW,292,0.0,6.0,88,0.00,,,0.00,,2012-12-09 18:52:00,
2012-12-09 11:02:00,49.0,45.0,30.15,WNW,292,0.0,0.0,87,0.00,,,0.00,,2012-12-09 19:02:00,
2012-12-09 11:12:00,51.0,46.0,30.15,South,180,5.0,6.0,82,0.00,,,0.00,,2012-12-09 19:12:00,
2012-12-09 11:22:00,51.0,46.0,30.15,South,180,5.0,6.0,82,0.00,,,0.00,,2012-12-09 19:22:00,
2012-12-09 11:32:00,51.0,45.0,30.15,SSW,202,0.0,9.0,81,0.00,,,0.00,,2012-12-09 19:32:00,
2012-12-09 11:42:00,51.0,45.0,30.15,SSW,202,0.0,9.0,81,0.00,,,0.00,,2012-12-09 19:42:00,
2012-12-09 11:52:00,53.0,47.0,30.13,East,90,0.0,0.0,80,0.00,,,0.00,,2012-12-09 19:52:00,
2012-12-09 12:02:00,55.0,47.0,30.13,South,180,3.0,3.0,75,0.00,,,0.00,,2012-12-09 20:02:00,
2012-12-09 12:12:00,55.0,47.0,30.13,South,180,3.0,3.0,75,0.00,,,0.00,,2012-12-09 20:12:00,
2012-12-09 12:22:00,55.0,47.0,30.11,South,180,5.0,7.0,74,0.00,,,0.00,,2012-12-09 20:22:00,
2012-12-09 12:32:00,55.0,47.0,30.11,South,180,6.0,6.0,74,0.00,,,0.00,,2012-12-09 20:32:00,
2012-12-09 12:42:00,55.0,47.0,30.11,South,180,6.0,6.0,74,0.00,,,0.00,,2012-12-09 20:42:00,
2012-12-09 12:52:00,55.0,47.0,30.10,SSE,157,0.0,7.0,73,0.00,,,0.00,,2012-12-09 20:52:00,
2012-12-09 13:02:00,56.0,48.0,30.10,SSE,157,5.0,5.0,74,0.00,,,0.00,,2012-12-09 21:02:00,
2012-12-09 13:12:00,56.0,47.0,30.10,SSE,157,3.0,7.0,73,0.00,,,0.00,,2012-12-09 21:12:00,
2012-12-09 13:22:00,56.0,47.0,30.10,SSE,157,3.0,7.0,73,0.00,,,0.00,,2012-12-09 21:22:00,
2012-12-09 13:32:00,56.0,47.0,30.10,SSE,157,0.0,3.0,73,0.00,,,0.00,,2012-12-09 21:32:00,
2012-12-09 13:42:00,56.0,47.0,30.10,SSE,157,0.0,3.0,73,0.00,,,0.00,,2012-12-09 21:42:00,
2012-12-09 13:52:00,56.0,46.0,30.09,SSE,157,5.0,7.0,70,0.00,,,0.00,,2012-12-09 21:52:00,
2012-12-09 14:02:00,56.0,47.0,30.09,SW,225,4.0,5.0,71,0.00,,,0.00,,2012-12-09 22:02:00,
2012-12-09 14:12:00,56.0,47.0,30.09,ENE,67,0.0,10.0,71,0.00,,,0.00,,2012-12-09 22:12:00,
2012-12-09 14:22:00,56.0,47.0,30.09,ENE,67,0.0,10.0,71,0.00,,,0.00,,2012-12-09 22:22:00,
2012-12-09 14:32:00,56.0,46.0,30.09,SSW,202,0.0,7.0,70,0.00,,,0.00,,2012-12-09 22:32:00,
2012-12-09 14:42:00,56.0,46.0,30.09,SSW,202,0.0,7.0,70,0.00,,,0.00,,2012-12-09 22:42:00,
2012-12-09 14:52:00,55.0,46.0,30.08,South,180,3.0,6.0,71,0.00,,,0.00,,2012-12-09 22:52:00,
2012-12-09 15:02:00,55.0,46.0,30.09,South,180,4.0,4.0,72,0.00,,,0.00,,2012-12-09 23:02:00,
2012-12-09 15:12:00,55.0,46.0,30.09,SSE,157,0.0,4.0,72,0.00,,,0.00,,2012-12-09 23:12:00,
2012-12-09 15:22:00,55.0,46.0,30.09,SSE,157,0.0,4.0,72,0.00,,,0.00,,2012-12-09 23:22:00,
2012-12-09 15:32:00,55.0,47.0,30.09,ESE,112,0.0,4.0,73,0.00,,,0.00,,2012-12-09 23:32:00,
2012-12-09 15:42:00,55.0,47.0,30.09,ESE,112,0.0,4.0,73,0.00,,,0.00,,2012-12-09 23:42:00,
2012-12-09 15:53:00,55.0,47.0,30.09,SE,135,0.0,5.0,73,0.00,,,0.00,,2012-12-09 23:53:00,
2012-12-09 16:02:00,55.0,47.0,30.09,SE,135,0.0,0.0,74,0.00,,,0.00,,2012-12-10 00:02:00,
2012-12-09 16:12:00,54.0,46.0,30.09,SE,135,0.0,0.0,74,0.00,,,0.00,,2012-12-10 00:12:00,
2012-12-09 16:22:00,54.0,46.0,30.09,SE,135,0.0,0.0,74,0.00,,,0.00,,2012-12-10 00:22:00,
2012-12-09 16:32:00,54.0,47.0,30.09,SE,135,0.0,0.0,76,0.00,,,0.00,,2012-12-10 00:32:00,
2012-12-09 16:42:00,54.0,47.0,30.09,SE,135,0.0,0.0,76,0.00,,,0.00,,2012-12-10 00:42:00,
2012-12-09 16:52:00,53.0,46.0,30.09,SE,135,0.0,0.0,77,0.00,,,0.00,,2012-12-10 00:52:00,
2012-12-09 17:01:00,53.0,47.0,30.09,SE,135,0.0,0.0,79,0.00,,,0.00,,2012-12-10 01:01:00,
2012-12-09 17:12:00,52.0,46.0,30.09,SE,135,0.0,0.0,81,0.00,,,0.00,,2012-12-10 01:12:00,
2012-12-09 17:22:00,52.0,46.0,30.09,SE,135,0.0,0.0,81,0.00,,,0.00,,2012-12-10 01:22:00,
2012-12-09 17:32:00,51.0,46.0,30.09,SE,135,0.0,0.0,82,0.00,,,0.00,,2012-12-10 01:32:00,
2012-12-09 17:42:00,51.0,46.0,30.09,SE,135,0.0,0.0,82,0.00,,,0.00,,2012-12-10 01:42:00,
2012-12-09 17:52:00,50.0,45.0,30.10,SE,135,0.0,0.0,83,0.00,,,0.00,,2012-12-10 01:52:00,
2012-12-09 18:01:00,50.0,45.0,30.10,SE,135,0.0,0.0,84,0.00,,,0.00,,2012-12-10 02:01:00,
2012-12-09 18:11:00,50.0,45.0,30.10,SE,135,0.0,0.0,84,0.00,,,0.00,,2012-12-10 02:11:00,
2012-12-09 18:22:00,49.0,44.0,30.10,SE,135,0.0,0.0,84,0.00,,,0.00,,2012-12-10 02:22:00,
2012-12-09 18:32:00,49.0,45.0,30.11,SE,135,0.0,0.0,85,0.00,,,0.00,,2012-12-10 02:32:00,
2012-12-09 18:42:00,49.0,45.0,30.11,SE,135,0.0,0.0,85,0.00,,,0.00,,2012-12-10 02:42:00,
2012-12-09 18:52:00,48.0,44.0,30.11,SE,135,0.0,0.0,86,0.00,,,0.00,,2012-12-10 02:52:00,
2012-12-09 19:01:00,48.0,44.0,30.11,SE,135,0.0,0.0,86,0.00,,,0.00,,2012-12-10 03:01:00,
2012-12-09 19:11:00,47.0,43.0,30.12,SE,135,0.0,0.0,87,0.00,,,0.00,,2012-12-10 03:11:00,
2012-12-09 19:22:00,47.0,43.0,30.12,SE,135,0.0,0.0,87,0.00,,,0.00,,2012-12-10 03:22:00,
2012-12-09 19:32:00,47.0,43.0,30.12,SE,135,0.0,0.0,87,0.00,,,0.00,,2012-12-10 03:32:00,
2012-12-09 19:42:00,47.0,43.0,30.12,SE,135,0.0,0.0,87,0.00,,,0.00,,2012-12-10 03:42:00,
2012-12-09 19:52:00,47.0,43.0,30.12,SE,135,0.0,0.0,86,0.00,,,0.00,,2012-12-10 03:52:00,
2012-12-09 20:02:00,47.0,43.0,30.13,SE,135,0.0,0.0,86,0.00,,,0.00,,2012-12-10 04:02:00,
2012-12-09 20:11:00,47.0,43.0,30.13,SE,135,0.0,0.0,86,0.00,,,0.00,,2012-12-10 04:11:00,
2012-12-09 20:22:00,47.0,43.0,30.13,SE,135,0.0,0.0,87,0.00,,,0.00,,2012-12-10 04:22:00,
2012-12-09 20:32:00,46.0,42.0,30.14,SE,135,0.0,0.0,87,0.00,,,0.00,,2012-12-10 04:32:00,
2012-12-09 20:42:00,46.0,42.0,30.14,SE,135,0.0,0.0,87,0.00,,,0.00,,2012-12-10 04:42:00,
2012-12-09 20:52:00,46.0,42.0,30.15,SE,135,0.0,0.0,87,0.00,,,0.00,,2012-12-10 04:52:00,
2012-12-09 21:02:00,46.0,42.0,30.15,SE,135,0.0,0.0,87,0.00,,,0.00,,2012-12-10 05:02:00,
2012-12-09 21:11:00,46.0,43.0,30.15,SE,135,0.0,0.0,88,0.00,,,0.00,,2012-12-10 05:11:00,
2012-12-09 21:22:00,46.0,43.0,30.15,SE,135,0.0,0.0,88,0.00,,,0.00,,2012-12-10 05:22:00,
2012-12-09 21:32:00,46.0,43.0,30.15,SE,135,0.0,0.0,88,0.00,,,0.00,,2012-12-10 05:32:00,
2012-12-09 21:42:00,46.0,43.0,30.16,East,90,3.0,3.0,88,0.00,,,0.00,,2012-12-10 05:42:00,
2012-12-09 21:52:00,46.0,43.0,30.16,East,90,3.0,3.0,88,0.00,,,0.00,,2012-12-10 05:52:00,
2012-12-09 22:02:00,46.0,43.0,30.17,East,90,0.0,3.0,88,0.00,,,0.00,,2012-12-10 06:02:00,
2012-12-09 22:11:00,46.0,43.0,30.16,East,90,0.0,0.0,88,0.00,,,0.00,,2012-12-10 06:11:00,
2012-12-09 22:22:00,46.0,43.0,30.16,East,90,0.0,0.0,88,0.00,,,0.00,,2012-12-10 06:22:00,
2012-12-09 22:32:00,46.0,43.0,30.17,East,90,0.0,0.0,88,0.00,,,0.00,,2012-12-10 06:32:00,
2012-12-09 22:42:00,46.0,43.0,30.17,East,90,0.0,0.0,88,0.00,,,0.00,,2012-12-10 06:42:00,
2012-12-09 22:52:00,46.0,43.0,30.18,East,90,0.0,0.0,88,0.00,,,0.00,,2012-12-10 06:52:00,
2012-12-09 23:01:00,45.0,42.0,30.18,ENE,67,0.0,4.0,89,0.00,,,0.00,,2012-12-10 07:01:00,
2012-12-09 23:11:00,46.0,43.0,30.18,ENE,67,0.0,3.0,89,0.00,,,0.00,,2012-12-10 07:11:00,
2012-12-09 23:22:00,46.0,43.0,30.18,ENE,67,0.0,3.0,89,0.00,,,0.00,,2012-12-10 07:22:00,
2012-12-09 23:32:00,46.0,43.0,30.18,ENE,67,0.0,0.0,89,0.00,,,0.00,,2012-12-10 07:32:00,
2012-12-09 23:42:00,46.0,43.0,30.18,ENE,67,0.0,0.0,89,0.00,,,0.00,,2012-12-10 07:42:00,
2012-12-09 23:52:00,46.0,43.0,30.17,ENE,67,0.0,5.0,89,0.00,,,0.00,,2012-12-10 07:52:00,